Location: Moscow
(55.7500°N, 37.5830°E)
Time: 13:16:42
(UTC+03:00)

Vanguard 1 - Pass Details

Date: 09 December 2021
Orbit: 652 x 3830 km, 34.2° (Epoch: 25 January)

Event Time Altitude Azimuth Distance (km) Brightness Sun altitude
Exits shadow 03:29:05 34° 185° (S) 4,823 13.2 -42.5°
Drops below altitude 10° 03:41:36 10° 144° (SE) 5,688 14.0 -40.9°
Sets 03:45:50 0° 135° (SE) 6,310 14.4 -40.3°
